Location: Altmatt
(47.1333°N, 8.7000°E)
Time: 17:13:48
(UTC+00:00)

CREW DRAGON DEMO-1 DEB - Pass Details

Date: 13 July 2020
Orbit: 368 x 372 km, 51.6° (Epoch: 12 August)

Event Time Altitude Azimuth Distance (km) Brightness Sun altitude
Rises 23:29:58 0° 295° (WNW) 2,226 7.1 -21.2°
Reaches altitude 10° 23:32:01 10° 298° (WNW) 1,373 6.0 -21.2°
Enters shadow 23:34:10 40° 313° (NW) 565 4.0 -21.2°
